Location: Jaworzyna Śląska
(50.9128°N, 16.4318°E)
Time: 04:39:31
(UTC+01:00)

ISS - Pass Details

Date: 31 January 2019
Orbit: 403 x 411 km, 51.6° (Epoch: 21 February)

Event Time Altitude Azimuth Distance (km) Brightness Sun altitude
Rises 18:09:06 0° 268° (W) 2,334 1.9 -13.6°
Reaches altitude 10° 18:11:11 10° 270° (W) 1,475 0.4 -13.9°
Maximum altitude 18:14:30 77° 357° (N) 426 -3.8 -14.4°
Enters shadow 18:15:53 32° 78° (ENE) 733 -3.1 -14.6°
